Regional Weather Roundup
Issued by NWS Kansas City/Pleasant Hill, MO

Home | Current Version | Previous Version | Text Only | Print | Product List | Glossary On
Versions: 1 2 3 4 5 6 7 8 9 10 11 12 13 14 15 16 17 18 19 20 21 22 23 24 25 26 27 28 29 30 31 32 33 34 35 36 37 38 39 40 41 42 43 44 45 46 47 48 49 50
000
ASUS43 KEAX 140115
RWREAX

WEATHER ROUNDUP FOR EASTERN KANSAS AND NORTHWEST MISSOURI
NATIONAL WEATHER SERVICE KANSAS CITY/PLEASANT HILL MO
800 PM CDT THU MAY 13 2021

KSZ040-057-103>105-MOZ028-029-037-043-140200-
...KANSAS CITY METROPOLITAN AREA...

CITY           SKY/WX    TMP DP  RH WIND       PRES   REMARKS
K.C. INTL      CLEAR     62  33  33 SE8       30.24F
K.C. DOWNTOWN  CLEAR     65  29  25 SE9       30.24S
LEES SUMMIT    CLEAR     63  30  28 SE8       30.26F
OLATHE - IXD   CLEAR     63  35  35 SE6       30.26S
OLATHE - OJC   CLEAR     62  33  33 SE7       30.25F
LAWRENCE       CLEAR     64  38  38 SE8       30.24S

$$

MOZ001>008-011>017-020>025-030>033-038>040-044>046-053-054-140200-
...NORTHERN AND CENTRAL MISSOURI...

CITY           SKY/WX    TMP DP  RH WIND       PRES   REMARKS
ST. JOSEPH     CLEAR     64  31  28 SE13      30.24F
MOSBY          CLEAR     64  28  25 SE3       30.26F
HARRISONVILLE  CLEAR     63  34  34 CALM      30.28F
WHITEMAN AFB   PTCLDY    61  36  40 E6        30.23S
CLINTON        CLEAR     64  39  39 CALM      30.26S
SEDALIA        CLEAR     62  32  32 E6        30.29S
MARSHALL       CLEAR     61  36  39 SE5       30.29S
CHILLICOTHE      N/A     63  29  27 CALM      30.28S
MOBERLY        CLEAR     63  30  29 SE5       30.30S
KIRKSVILLE     CLEAR     59  32  36 SE6       30.30S

$$

MOZ041-047>049-056>058-063>065-088>090-097-140200-
...EASTERN AND SOUTHERN MISSOURI...

CITY           SKY/WX    TMP DP  RH WIND       PRES   REMARKS
ST. LOUIS INTL PTCLDY    61  33  35 E8        30.31R
SPIRIT OF STL  CLEAR     58  38  47 SE3       30.29S
COLUMBIA       CLEAR     64  32  30 SE3       30.28F
JEFFERSON CITY CLEAR     66  29  24 NE5       30.28S
MEXICO         CLEAR     61  34  36 E3        30.30S
HANNIBAL       CLEAR     57  32  38 CALM      30.31S
ROLLA          CLEAR     59  37  44 NE6       30.29S
LEBANON        CLEAR     59  32  36 CALM      30.29S
OSAGE BEACH    CLEAR     60  34  37 NE3       30.29S
SPRINGFIELD    CLEAR     63  36  36 NE6       30.25S
BRANSON        PTCLDY    66  41  39 SE5       30.27S
JOPLIN         CLEAR     64  43  46 NE6       30.24F
WEST PLAINS    CLEAR     62  32  32 CALM      30.27R
SIKESTON       CLEAR     61  36  39 N3        30.29R

$$

IAZ060-094-KSZ022-034>040-054-083-096-NEZ052-066-093-140200-
...KANSAS...SOUTHEAST NEBRASKA AND IOWA...

CITY           SKY/WX    TMP DP  RH WIND       PRES   REMARKS
TOPEKA         CLEAR     65  36  34 SE9       30.23S
MANHATTAN      PTCLDY    64  37  36 SE7       30.20
EMPORIA        CLEAR     65  40  39 SE7       30.21F
OTTAWA         FAIR      63  43  48 SE7       30.23S
CHANUTE        CLEAR     65  42  43 SE6       30.23S
SALINA         PTCLDY    65  43  44 SE9       30.18R
WICHITA        PTCLDY    67  42  40 S9        30.18F
OMAHA          PTCLDY    67  29  24 S14       30.18S
LINCOLN        PTCLDY    66  34  30 S14       30.16F
LAMONI         PTCLDY    59  31  34 SE3       30.26S
DES MOINES     PTCLDY    61  32  33 S8        30.26S

$$




USA.gov is the U.S. government's official web portal to all federal, state and local government web resources and services.